Wind_Speed
58 57 55 53 51 51 53 55 54 53 52 52 52 53 55 55 55 56 55 54 54 53 52 52 52 52 52 52 52 52 52 52 52 51 51 51 51 50 48 47 47 48 50 51 52 52 52 51 51 52 53 53 55 57 60 63 65 65 63 60 58 59 61 62 61 61 60 60 59 58 58 58 59 59 58 58 58 58 57 57 57 58 58 58 57
59 58 56 52 50 53 57 56 53 52 52 53 54 56 58 58 58 58 58 57 56 55 55 55 55 55 56 55 55 55 56 55 55 54 54 53 53 53 53 52 51 50 50 51 52 53 53 54 53 53 54 55 55 56 58 61 63 65 66 65 62 61 61 62 63 63 63 63 62 62 61 61 62 63 62 62 62 61 60 59 58 57 58 58 58
58 57 56 54 54 56 57 55 53 53 54 55 56 58 60 60 58 58 59 58 56 55 56 57 58 59 60 59 58 58 58 58 58 58 57 56 55 55 55 55 55 55 54 53 53 53 54 54 55 55 55 56 56 57 58 60 61 63 65 66 66 65 64 63 64 64 65 66 66 66 65 63 64 65 66 66 66 65 64 63 62 61 61 61 61
55 56 56 55 55 55 55 56 57 58 56 55 57 60 61 60 59 59 60 59 58 59 59 59 59 60 61 62 62 62 61 60 60 61 60 60 59 58 58 57 57 57 58 57 57 56 56 56 56 56 56 56 56 58 59 60 61 62 64 65 66 68 68 67 66 66 66 67 68 69 70 69 67 68 69 70 70 70 69 67 66 65 65 66 66
53 53 54 54 54 55 57 60 62 62 61 61 62 63 61 59 60 60 60 60 60 62 63 64 63 62 63 64 64 64 65 65 65 64 63 62 61 61 60 60 60 60 60 60 60 60 60 59 58 58 58 57 57 57 59 61 62 63 64 65 66 67 69 69 69 69 68 68 69 70 72 73 73 73 73 73 73 73 73 72 71 70 69 69 70
52 52 52 53 53 54 56 58 59 60 62 62 62 64 64 63 63 63 62 62 63 64 65 66 64 65 67 68 68 66 65 65 65 66 65 64 63 63 63 63 63 63 63 62 62 63 63 62 62 61 61 60 59 59 59 60 62 64 65 66 67 67 68 69 70 70 70 71 71 71 72 74 76 77 77 76 75 75 75 75 76 76 75 73 72
52 51 51 52 52 53 54 55 56 57 58 58 59 61 64 63 63 63 63 63 65 65 65 65 64 64 66 68 70 69 66 63 63 64 65 65 65 65 65 65 65 65 65 65 65 65 65 65 65 65 65 64 63 62 62 61 62 63 65 67 68 68 69 70 71 71 72 72 72 73 73 73 75 78 79 79 79 78 76 75 76 77 78 79 78
53 52 52 52 53 53 54 54 55 56 56 56 56 58 58 58 59 60 59 59 61 62 62 63 64 63 61 62 64 65 64 63 63 64 66 66 66 67 66 66 66 67 68 68 67 68 68 68 68 68 68 68 67 67 66 65 65 65 65 66 68 69 70 71 72 72 73 73 73 74 74 74 74 76 77 78 80 81 80 79 77 76 76 77 79
54 54 54 54 55 55 55 55 56 56 56 55 55 57 57 57 56 57 58 58 59 58 58 60 61 60 60 61 60 60 61 62 63 65 68 69 69 69 68 67 67 68 69 70 70 71 71 71 71 72 72 71 70 70 70 70 70 69 69 69 69 69 70 71 72 73 73 74 75 75 75 75 75 75 75 76 77 79 81 82 82 82 79 77 77
56 56 56 56 57 57 56 56 57 57 56 56 56 57 58 58 57 58 59 60 60 60 60 61 62 62 63 65 64 62 61 63 64 66 69 71 70 69 69 70 71 72 72 73 73 74 75 75 74 75 75 75 74 74 74 74 73 73 73 73 72 72 71 71 72 73 73 74 75 76 76 77 77 77 76 76 76 76 78 80 83 84 85 83 82
58 58 59 60 60 59 58 59 60 60 58 57 58 58 59 59 59 59 60 61 62 63 64 66 67 67 66 68 70 68 66 66 66 67 69 71 70 68 67 69 71 73 75 76 76 76 77 77 77 78 79 79 79 78 78 77 77 76 76 76 76 75 75 75 74 74 74 75 75 76 77 77 78 78 77 77 77 76 76 78 79 82 84 85 86
62 61 62 63 63 63 62 62 63 62 61 60 60 61 62 62 61 61 62 62 63 64 64 66 68 68 68 68 69 68 68 69 69 69 70 71 71 70 68 68 69 70 73 75 77 78 78 78 79 81 82 82 82 81 81 81 81 80 79 79 79 79 78 78 78 78 78 77 78 78 78 78 78 79 79 79 78 78 78 78 78 79 80 82 83
66 65 65 65 65 66 66 66 66 65 65 64 64 64 65 65 64 64 64 65 66 66 66 66 67 67 67 67 65 65 67 70 72 73 74 75 73 72 71 71 70 70 71 72 75 77 79 79 80 81 82 83 84 84 83 83 84 83 83 83 82 82 82 81 81 82 82 82 81 81 81 80 80 81 81 80 80 80 81 81 81 80 80 80 81
68 68 68 68 68 68 69 68 68 68 68 68 68 68 68 68 68 68 67 67 68 68 68 69 69 69 68 67 64 64 67 70 73 75 75 75 74 72 73 74 73 72 72 73 74 75 77 79 80 81 82 83 83 84 85 86 86 86 86 86 86 86 85 85 85 85 86 86 85 85 85 84 83 84 84 83 83 82 82 82 82 82 82 82 82
71 71 71 71 71 70 70 70 70 70 70 70 70 70 70 70 70 70 70 70 70 70 70 71 71 72 71 69 66 66 69 72 74 74 73 72 72 72 74 75 74 74 75 76 76 75 77 79 80 82 83 83 83 84 85 87 88 89 88 88 88 89 88 88 89 89 89 89 89 89 89 89 88 88 88 88 86 85 85 84 84 83 84 84 84
74 73 73 73 73 72 71 71 71 71 71 71 71 71 71 71 71 72 72 72 72 72 72 72 73 74 73 71 70 71 73 74 75 75 74 73 73 74 75 75 75 76 76 77 77 78 79 80 81 83 83 83 83 84 85 87 88 89 89 89 90 91 91 92 92 92 92 92 92 92 92 92 92 92 92 92 91 90 89 87 87 87 87 86 85
76 75 75 76 76 74 73 72 72 72 72 72 72 72 72 72 72 72 72 73 73 73 73 72 73 73 73 73 73 74 75 76 76 75 75 76 76 77 78 77 77 77 77 77 78 79 81 82 83 83 83 83 83 84 85 86 87 87 88 89 90 92 93 94 94 95 95 95 96 96 96 96 96 96 96 95 95 95 94 92 91 91 90 89 88
77 76 76 76 76 75 74 74 73 73 73 73 73 73 73 73 73 73 73 73 73 73 73 72 71 71 73 74 75 76 76 76 76 75 76 77 78 79 80 79 79 79 79 79 79 80 82 84 83 83 83 83 84 85 86 86 86 86 87 88 89 91 92 94 96 96 97 98 98 99 99 99 99 99 99 99 98 98 98 97 96 96 95 93 92
78 77 77 77 77 77 75 74 75 75 75 75 74 74 74 75 75 75 75 74 74 74 72 71 70 70 72 74 75 76 76 75 76 76 77 77 78 79 79 79 79 80 80 81 81 82 83 84 83 83 83 84 86 87 87 87 86 87 87 88 89 90 91 93 95 96 98 99 100 101 101 102 102 102 102 102 101 101 101 100 100 100 99 98 97
78 78 78 78 78 78 77 76 75 75 75 76 76 76 77 77 77 77 77 76 76 74 72 70 69 71 73 74 75 75 76 76 77 77 77 77 78 79 79 79 79 80 80 81 82 83 83 83 83 83 84 85 86 87 88 88 87 88 88 89 89 90 91 93 94 95 96 98 100 102 103 104 104 104 105 105 104 104 104 103 103 102 102 101 101
77 78 78 78 79 79 78 77 76 76 76 77 77 78 79 79 79 79 79 78 77 74 72 71 70 72 73 74 74 75 76 76 77 77 76 77 77 78 78 79 79 79 80 81 82 83 84 83 83 84 85 86 86 87 88 88 88 89 90 90 91 91 92 93 94 95 96 97 98 100 102 103 105 106 106 107 107 107 107 107 106 105 104 103 103
75 76 76 77 77 78 78 78 77 77 78 78 79 79 80 81 80 80 80 79 77 75 73 73 72 72 73 74 74 75 75 76 76 76 76 76 77 77 78 79 79 80 80 80 81 82 84 84 83 83 85 86 86 87 88 88 88 89 90 91 92 92 93 93 95 96 96 97 97 98 99 101 103 105 106 107 108 109 110 110 109 109 107 106 105
72 72 73 74 74 75 76 76 76 76 77 79 79 79 80 81 81 80 80 79 77 75 74 74 73 72 73 74 74 75 75 75 75 75 75 76 76 76 77 78 79 79 79 80 80 80 81 82 81 81 82 83 84 85 86 87 88 89 90 91 91 92 93 93 94 95 96 96 97 98 98 99 101 102 104 105 107 109 110 111 111 112 111 110 108
68 69 69 70 71 72 72 72 72 73 74 76 77 77 77 79 78 77 77 76 74 72 71 71 71 71 71 72 73 73 74 74 74 74 74 75 75 76 76 76 77 78 78 78 78 78 78 78 78 78 79 79 80 82 83 85 86 87 88 88 89 90 91 92 93 93 93 94 95 96 97 98 99 100 101 102 103 105 107 109 110 111 112 112 111
65 65 66 67 68 68 69 69 69 69 71 73 73 73 73 74 74 72 72 72 70 69 68 68 68 68 68 68 69 70 71 71 71 71 71 72 73 73 73 73 73 74 74 75 75 75 74 74 74 74 75 76 77 78 80 81 82 83 84 85 86 87 88 89 90 91 91 91 91 92 93 94 96 97 98 99 100 101 103 104 105 107 109 110 110
63 62 63 64 66 66 67 67 67 67 68 70 70 68 68 68 69 68 68 68 67 67 65 65 64 64 64 65 66 67 67 67 67 68 68 68 69 69 69 69 69 69 69 70 70 70 70 71 70 70 70 71 72 73 74 75 76 77 78 80 81 82 84 85 86 87 88 88 87 87 87 88 90 91 92 93 95 97 98 100 100 101 102 103 104
60 60 62 64 65 66 66 65 65 65 66 66 66 63 62 64 65 65 64 65 64 64 63 62 61 61 61 62 63 63 64 64 64 64 64 64 65 65 66 66 66 66 66 66 66 67 67 67 67 66 66 66 67 67 68 69 69 71 72 74 75 76 78 79 80 81 81 81 82 82 82 83 84 85 86 86 88 90 92 94 95 95 96 97 97
60 60 62 64 64 64 64 62 61 63 64 62 60 58 59 61 63 62 62 62 61 61 61 60 58 58 58 59 60 61 62 62 61 61 61 61 62 63 63 63 63 63 63 63 63 63 64 64 63 63 63 62 62 62 62 63 63 65 66 68 69 70 70 71 72 73 74 75 76 77 77 78 79 79 79 80 81 83 85 87 87 88 89 91 92
59 59 60 61 61 61 61 59 59 61 61 57 55 56 58 59 60 59 59 60 59 58 59 57 55 55 56 57 57 58 59 59 58 58 58 59 59 60 60 60 60 60 60 60 60 60 61 61 60 59 59 58 58 57 57 58 59 60 61 61 62 63 63 64 65 66 67 68 70 71 72 73 73 74 74 74 75 76 78 80 80 81 82 84 85
58 56 56 56 57 58 58 58 58 58 56 54 54 55 55 56 56 55 55 56 55 54 55 55 53 53 53 54 54 55 56 56 56 56 56 56 57 57 57 57 58 57 57 57 57 57 57 57 56 55 54 53 53 53 53 54 54 55 56 56 57 57 58 59 60 60 61 62 63 65 66 67 68 69 69 69 70 71 73 74 75 75 76 77 78
54 54 53 54 55 56 56 56 56 53 51 52 54 53 51 51 52 52 51 52 51 50 51 51 50 49 50 51 51 52 53 54 54 53 53 54 54 55 55 55 55 55 54 54 55 54 54 52 51 50 49 49 48 48 49 50 52 53 54 54 54 54 53 53 53 53 54 56 58 60 62 64 65 66 66 66 67 68 69 70 71 71 72 72 73
50 51 52 53 53 54 54 53 51 49 49 51 50 48 47 48 48 48 48 49 48 47 46 46 47 47 47 48 48 50 51 51 51 51 51 52 52 52 52 52 52 52 52 52 52 51 50 49 48 47 46 45 45 45 47 48 50 52 53 52 51 50 48 48 48 49 50 52 55 57 59 61 62 63 63 64 65 65 66 67 67 67 68 69 69
49 50 51 51 52 52 51 49 48 47 48 47 46 45 46 46 46 46 47 47 46 44 43 44 46 46 46 46 47 49 49 49 49 49 50 50 50 50 50 50 50 50 50 50 49 48 48 46 45 43 42 42 42 43 45 48 50 51 50 49 49 49 49 48 47 47 48 49 51 53 55 56 57 58 60 61 61 62 63 63 63 63 63 64 65
48 48 49 49 49 48 47 47 46 45 45 44 44 45 46 45 45 45 45 45 44 44 44 44 45 46 47 48 48 48 48 49 49 50 49 49 49 48 49 49 49 49 49 48 47 46 45 43 41 40 40 40 41 43 45 47 47 47 46 46 47 47 46 45 44 44 44 44 45 46 48 49 51 52 54 55 56 57 58 58 58 57 57 58 59
45 46 47 48 47 46 46 45 44 43 44 45 45 45 45 44 43 43 44 44 45 45 45 46 46 47 49 49 49 49 49 50 50 50 49 49 49 49 49 50 50 49 48 46 45 43 42 40 39 39 39 40 41 42 42 42 42 41 42 42 42 41 40 40 39 39 39 39 39 39 40 42 43 45 47 48 49 50 51 51 52 52 52 53 53
44 45 46 46 45 45 45 44 43 44 45 45 44 43 43 42 42 43 45 46 46 47 47 47 48 49 50 49 49 49 49 49 49 49 49 49 49 50 50 49 49 48 47 45 43 41 40 39 38 38 39 39 38 37 37 36 36 36 36 36 35 35 35 34 35 35 35 35 35 35 36 37 38 39 41 42 43 43 44 45 45 46 46 47 47
42 43 44 44 44 44 44 44 45 45 44 42 41 42 42 42 43 44 45 46 47 47 47 48 48 49 49 49 48 48 48 48 49 49 49 50 50 49 49 48 48 47 46 44 42 39 38 37 37 37 37 35 33 32 32 31 31 31 30 30 30 30 30 30 30 31 31 31 31 32 33 33 34 35 36 37 37 38 39 40 40 40 41 41 41
39 40 41 42 42 42 44 45 45 43 41 41 41 42 41 42 43 43 44 45 46 47 47 48 48 48 48 47 46 46 47 47 48 48 48 48 48 48 47 47 47 46 44 41 39 37 36 35 34 34 33 31 29 28 28 27 26 25 25 25 26 26 26 26 26 27 27 27 28 29 30 31 31 32 33 33 34 34 35 35 36 36 36 36 37
37 38 39 39 40 41 42 43 42 40 40 41 41 40 40 40 41 42 44 45 45 46 46 46 46 46 46 45 45 46 46 46 46 45 45 45 45 46 46 45 45 43 41 38 35 34 33 32 32 30 28 27 26 26 25 24 23 22 22 22 22 23 23 23 23 23 24 25 26 26 27 27 28 29 29 30 30 30 31 31 31 32 32 32 32
36 37 37 38 39 40 39 39 39 39 39 40 39 38 39 39 40 41 42 43 43 43 44 44 44 44 44 44 44 44 44 43 42 42 42 42 43 43 43 42 41 39 36 33 31 30 30 30 29 27 25 24 24 23 22 21 21 21 21 21 21 21 21 21 21 22 22 23 24 24 25 25 26 26 26 27 27 27 27 28 28 28 28 28 29
34 35 36 37 37 38 37 38 38 38 37 37 36 37 37 38 38 38 39 39 39 39 39 39 40 40 41 41 41 40 39 39 38 39 39 39 39 40 40 39 37 35 32 29 27 27 28 27 25 23 22 22 22 22 21 20 20 20 20 20 20 20 20 20 20 21 22 22 23 23 24 24 24 25 25 26 26 26 26 26 26 26 26 27 27
31 32 33 34 35 35 35 35 35 35 34 34 35 35 35 35 35 35 35 35 35 35 35 36 36 36 36 36 35 35 35 35 35 36 36 36 36 37 36 34 32 30 28 25 24 25 25 24 22 21 21 21 21 21 20 20 19 19 19 19 19 19 19 19 20 20 21 21 22 22 23 24 24 24 24 24 24 24 24 24 24 24 24 24 24
29 30 30 31 32 33 33 33 33 33 33 33 33 33 32 32 32 32 32 32 32 32 33 33 33 33 32 32 32 32 32 32 32 32 33 34 34 33 32 30 29 27 25 22 21 21 21 21 21 20 20 21 21 21 20 20 19 18 18 18 18 18 19 19 19 20 20 21 21 22 22 22 22 22 22 22 22 22 22 22 21 21 21 21 21
27 27 28 29 30 30 31 31 31 31 31 31 31 30 30 30 30 29 29 29 30 30 31 30 30 29 29 29 29 29 29 29 29 30 31 32 31 29 28 27 26 25 22 19 18 19 20 21 21 21 20 21 21 20 20 19 17 17 17 18 18 17 17 18 18 19 19 19 19 19 19 19 19 19 19 19 20 20 20 20 19 19 19 19 19
26 26 27 27 28 28 29 29 29 29 29 29 28 27 27 26 26 26 26 27 27 28 27 27 27 27 27 27 27 27 27 27 28 29 30 29 28 27 26 25 24 22 19 17 17 19 21 22 22 21 20 20 20 19 18 17 16 16 16 16 16 15 15 16 17 17 17 17 17 17 17 17 17 17 17 18 18 18 18 18 18 18 18 18 18
23 24 24 24 25 25 26 26 26 26 26 25 25 24 24 24 23 24 25 25 25 26 26 26 26 26 26 26 26 26 26 27 27 28 28 27 26 25 23 22 21 19 17 17 18 20 22 22 22 21 20 19 19 18 17 16 15 15 15 15 14 14 14 15 16 17 16 16 16 16 15 15 15 15 16 16 16 16 16 17 17 17 17 17 18
20 20 21 21 21 22 22 23 23 23 23 22 22 22 23 23 24 24 25 25 25 25 25 25 25 25 25 25 25 25 26 26 27 27 27 26 24 23 21 20 19 19 18 18 19 21 22 23 22 21 20 19 18 17 16 15 14 14 14 14 14 14 14 16 16 16 16 16 15 14 13 13 13 13 14 14 14 15 15 15 16 16 16 16 17
18 18 18 18 19 19 20 20 20 20 20 20 21 22 22 23 24 25 25 25 25 25 25 25 25 25 26 25 25 25 26 26 26 26 26 24 22 21 20 19 19 19 18 19 20 22 23 24 23 21 19 18 17 16 16 15 14 14 15 14 14 14 14 15 15 15 15 14 13 12 12 12 12 12 13 13 13 13 14 14 14 15 15 15 16
18 18 18 18 18 18 18 18 19 19 19 20 21 21 22 23 24 25 25 26 26 26 26 26 26 26 26 26 26 26 26 26 26 25 24 23 21 20 20 20 20 20 19 19 21 23 24 24 23 21 19 17 17 16 16 15 15 15 15 14 14 14 14 14 14 14 13 13 12 12 12 12 12 11 12 12 12 12 12 12 13 13 14 14 14
19 18 18 18 18 18 18 18 19 19 19 19 20 21 22 22 23 24 25 25 26 26 26 26 26 26 26 26 26 26 26 25 24 24 23 22 22 21 21 21 21 20 20 20 21 23 24 24 23 21 20 18 17 17 16 16 15 15 15 15 15 14 14 14 14 13 13 13 13 12 11 12 12 10 10 10 11 11 11 11 11 12 12 13 13
21 20 19 19 18 18 18 18 19 19 19 20 20 21 22 22 23 24 25 26 26 26 26 26 26 27 27 26 26 25 25 24 23 23 23 23 23 23 22 22 21 21 20 20 21 23 24 24 23 23 21 20 18 18 17 16 16 16 16 15 15 15 14 13 13 13 14 14 13 12 11 12 11 10 8 8 9 9 9 10 10 10 11 11 10
Wind_Direction
266 265 264 263 263 260 259 261 260 256 256 256 255 256 256 255 255 255 255 254 253 253 253 253 253 252 252 251 251 251 251 252 252 251 252 251 251 250 249 248 248 248 248 247 247 246 245 245 244 246 247 246 245 244 243 242 242 242 239 236 234 234 235 237 239 242 244 246 246 246 247 248 250 251 253 254 254 254 253 251 249 249 250 251 253
266 265 263 260 259 260 263 263 259 256 256 257 258 259 259 257 255 254 254 253 253 253 254 255 255 254 253 252 252 251 251 251 252 252 252 252 251 251 250 250 249 249 248 248 248 247 247 247 246 246 246 247 246 245 244 243 243 243 242 241 239 236 235 235 237 239 241 243 245 245 244 244 245 247 249 251 254 256 257 257 256 255 253 252 252
267 266 264 260 258 259 260 258 257 258 257 257 259 261 261 259 256 255 255 254 254 254 255 255 255 255 254 253 251 251 251 252 252 252 251 251 251 252 251 251 250 249 249 249 249 249 249 249 248 248 247 247 247 247 246 245 244 244 244 244 243 242 239 237 236 237 238 239 241 243 244 243 243 244 244 246 248 251 254 256 258 259 259 258 256
267 266 265 262 258 256 254 255 258 260 257 257 260 263 262 259 257 256 257 257 257 257 256 256 255 254 254 253 252 251 251 251 252 252 251 251 251 252 252 251 251 251 250 249 250 250 250 250 250 250 249 248 248 248 247 247 246 246 246 246 246 246 246 244 241 240 239 238 238 239 241 242 242 243 243 243 245 247 249 251 253 255 257 258 258
267 267 266 264 261 257 256 257 258 258 256 257 260 261 259 257 258 258 257 259 260 260 259 258 256 256 256 255 255 254 253 252 252 252 251 251 251 251 252 252 251 251 251 250 250 250 250 251 251 251 251 250 249 248 248 248 247 247 247 247 247 247 248 249 248 246 244 242 240 238 238 239 240 241 241 241 242 244 246 248 250 251 252 253 254
267 266 266 265 264 261 259 259 258 257 258 258 257 256 256 257 258 259 259 259 259 259 260 260 259 259 257 256 255 256 256 255 253 253 251 250 251 252 252 252 252 251 251 251 251 251 250 250 251 251 252 252 251 250 249 249 248 248 248 248 248 248 248 249 250 250 249 247 245 243 240 239 240 240 240 240 241 242 244 246 248 249 250 251 251
267 266 265 265 264 262 261 260 259 258 257 257 256 255 257 258 258 259 260 260 259 258 258 258 258 258 258 258 256 254 255 256 257 256 254 251 252 252 252 252 253 252 252 252 252 252 252 251 251 251 251 251 252 252 251 251 250 249 249 249 249 249 249 249 249 250 251 250 250 248 246 243 242 242 242 241 241 242 243 244 245 247 248 249 250
267 266 265 264 263 262 262 261 260 259 257 257 256 255 255 256 257 258 259 259 258 258 257 256 256 257 260 262 260 256 256 257 259 259 257 256 255 253 251 252 254 254 254 253 253 252 252 252 252 252 251 251 251 251 252 252 252 251 251 250 250 250 249 249 249 249 249 250 251 251 251 249 247 244 244 243 244 244 245 245 246 246 246 247 248
267 266 265 264 263 262 262 261 261 260 259 258 256 255 255 254 254 256 256 255 255 255 255 255 256 259 261 262 260 260 261 262 262 261 260 259 258 255 253 253 253 254 254 254 253 253 253 252 252 252 252 252 251 251 251 251 252 252 252 251 251 251 251 250 250 250 249 250 250 251 252 252 252 250 248 246 245 246 246 247 248 249 249 248 248
268 267 267 266 265 264 264 263 262 261 260 259 257 256 255 254 253 254 254 254 255 254 253 254 256 260 263 261 260 262 264 264 264 263 262 260 258 256 256 256 255 254 255 255 254 254 253 253 253 253 253 253 252 252 252 251 251 252 252 252 252 252 252 252 251 251 251 251 251 251 251 252 252 252 252 250 249 248 247 247 247 249 250 251 251
267 268 268 267 267 266 265 265 264 263 262 261 259 258 257 256 254 253 254 254 255 255 255 254 256 260 262 262 262 264 265 264 263 262 261 261 260 259 259 258 257 256 256 256 255 255 254 254 253 253 254 253 253 252 252 252 252 252 252 252 252 252 252 253 253 252 252 252 252 252 252 252 253 253 253 252 252 251 250 249 248 248 249 250 252
266 266 266 267 268 268 266 266 266 266 265 263 263 261 260 258 257 255 255 255 255 255 255 254 255 258 260 261 262 263 263 262 262 263 262 262 263 264 263 261 259 257 257 257 256 255 254 254 254 253 253 254 254 253 253 253 253 253 253 253 253 253 253 253 253 253 253 252 252 252 252 253 253 254 253 253 253 253 253 252 251 250 250 250 251
267 266 266 265 266 267 267 266 266 266 266 265 264 263 262 262 260 259 257 257 257 257 256 256 255 256 257 258 260 260 260 260 262 264 265 264 264 265 265 263 261 259 258 257 256 255 254 254 254 254 253 254 254 254 254 254 254 253 253 253 254 254 253 253 253 254 254 253 253 253 253 253 253 254 254 253 253 253 253 254 254 253 253 252 251
270 269 268 266 265 265 265 266 266 265 265 265 264 263 263 262 262 261 260 260 259 259 259 259 258 257 257 256 257 258 259 259 260 262 263 264 264 264 264 263 262 260 259 258 257 256 256 255 254 254 253 253 254 254 254 254 254 253 253 253 254 254 254 254 254 254 254 254 254 254 254 254 254 254 255 254 254 253 253 254 254 254 254 254 254
274 272 271 270 268 266 265 265 265 264 264 264 264 263 263 262 262 262 262 261 260 260 260 260 261 260 259 257 256 256 256 256 257 258 260 262 263 263 262 262 262 261 260 260 259 259 258 257 256 256 255 254 255 255 255 255 254 254 254 254 254 254 254 255 255 255 255 254 254 254 254 254 254 254 254 255 254 254 254 254 254 254 254 254 254
274 274 273 272 271 269 268 266 266 265 264 264 264 264 263 263 262 261 261 261 261 260 260 260 261 262 262 261 259 257 256 256 256 257 257 258 260 261 261 261 261 261 261 261 261 260 259 259 258 258 257 257 256 256 256 256 255 255 255 254 254 254 255 255 255 255 256 256 255 255 254 254 254 254 254 255 255 254 254 254 254 254 254 254 254
274 273 273 272 271 271 270 268 267 267 266 265 264 264 263 263 262 261 261 260 260 260 260 260 260 262 263 263 261 260 258 258 258 258 258 258 258 258 258 259 260 260 260 260 260 260 260 260 259 259 260 259 259 258 258 257 257 256 256 255 255 255 255 255 255 255 255 255 256 256 256 255 255 255 255 255 255 255 255 254 254 254 254 254 254
273 272 272 271 271 270 270 269 269 268 267 267 266 265 265 264 263 262 261 260 260 260 260 260 260 261 262 263 262 262 261 260 260 259 259 258 258 258 257 258 258 258 258 258 258 258 259 259 259 260 260 260 260 260 259 258 258 257 257 256 256 255 255 255 254 254 254 254 255 255 256 256 256 256 255 255 255 256 256 256 255 255 254 254 254
271 271 271 270 270 269 269 268 268 268 268 268 267 267 266 265 265 264 263 262 261 260 260 260 260 260 261 261 262 262 262 262 261 260 259 259 258 258 258 258 257 257 257 257 257 256 257 258 259 259 260 260 260 260 259 259 259 258 257 257 256 256 256 255 255 254 254 254 254 254 255 255 256 256 256 256 256 256 256 256 256 256 256 256 255
269 269 269 269 269 268 268 268 267 267 267 267 267 267 267 266 266 265 265 264 263 262 262 261 261 260 260 260 261 261 262 262 261 261 260 260 260 260 259 259 258 257 257 256 256 256 256 257 258 258 258 258 259 259 260 260 259 259 259 258 257 257 256 256 256 255 254 254 254 254 254 254 255 255 256 256 257 257 256 256 256 256 257 257 257
267 267 267 267 267 267 267 267 267 267 266 266 266 266 266 266 266 266 266 266 265 265 265 264 263 262 262 261 261 261 261 261 261 261 261 261 260 260 261 260 259 258 257 257 257 256 256 255 256 257 258 258 258 259 259 259 259 260 259 259 258 258 257 257 257 256 256 255 255 255 254 254 254 254 255 255 256 256 257 257 257 257 256 257 257
266 266 266 265 265 266 266 266 265 265 265 265 265 265 266 266 266 266 267 267 267 267 267 266 265 264 264 263 263 263 262 262 262 262 262 261 261 261 261 261 261 260 259 258 258 257 257 256 256 257 257 258 258 259 259 260 260 260 260 260 260 259 258 258 257 257 257 257 256 256 256 255 255 255 255 255 255 255 256 257 257 257 257 257 257
265 265 265 265 265 265 265 264 264 264 264 264 264 264 265 265 266 266 266 267 267 267 267 266 266 265 264 264 264 263 263 263 263 262 262 262 262 261 261 261 262 262 261 260 260 259 259 259 258 258 259 259 260 260 260 261 261 261 260 261 261 261 260 260 259 258 258 257 257 257 257 257 256 256 256 255 255 255 255 255 256 257 257 258 258
264 264 264 264 264 264 264 264 264 263 263 263 263 263 264 264 265 266 266 267 267 267 266 266 265 264 264 263 263 263 263 263 263 263 262 262 262 262 262 262 262 262 263 263 262 262 261 261 261 261 261 261 261 261 261 261 261 261 262 262 261 261 261 261 261 260 260 259 258 257 257 257 257 257 257 257 256 256 256 256 256 256 257 257 258
264 263 263 264 263 263 263 263 262 262 262 262 263 263 263 264 265 266 267 267 267 266 265 264 264 263 263 263 262 262 262 263 263 263 263 263 262 262 262 262 262 262 263 264 264 264 264 264 263 263 262 262 262 261 261 262 262 262 262 262 262 262 261 261 261 261 261 260 260 259 258 258 257 257 257 257 257 257 257 257 257 257 257 257 257
262 262 262 262 262 262 262 262 262 262 262 262 262 263 264 265 266 266 265 265 265 265 265 264 263 262 262 261 261 261 261 262 262 262 262 262 263 263 263 263 263 263 264 264 265 265 265 265 265 264 264 264 263 263 263 263 263 263 263 263 262 262 262 261 261 261 262 262 262 261 261 260 259 258 258 258 258 258 258 258 258 258 258 258 258
259 259 259 259 260 260 261 261 261 262 261 261 262 263 264 264 264 263 263 263 264 264 264 263 262 262 261 261 261 261 261 260 261 261 262 263 263 264 264 264 265 265 265 265 265 265 266 266 266 266 266 266 266 266 265 265 264 264 263 263 263 262 262 262 263 263 263 263 263 262 262 261 260 260 259 258 258 258 258 258 258 258 259 259 259
257 257 257 258 259 260 261 262 262 262 261 262 262 263 262 261 261 262 262 262 262 263 263 262 262 262 261 260 260 260 260 260 261 261 262 263 263 263 264 264 265 265 265 265 266 266 267 267 268 268 268 268 268 268 267 267 266 265 264 264 264 264 264 264 263 263 263 262 262 261 261 261 260 260 260 259 259 258 258 259 258 258 258 259 259
258 257 257 259 260 261 261 261 261 261 261 262 262 261 260 260 260 260 261 261 260 261 262 262 261 260 260 260 260 260 261 261 261 261 261 261 262 263 263 264 264 265 265 266 266 267 267 268 268 269 269 270 270 269 269 268 267 266 266 266 265 265 264 263 262 261 260 260 260 260 260 261 261 261 261 260 260 259 259 259 259 259 258 258 258
260 259 259 259 259 259 259 259 259 259 261 261 260 258 258 259 260 259 259 260 260 259 260 261 260 259 259 259 259 259 260 260 260 260 261 261 261 262 263 264 264 265 266 266 267 268 268 268 269 270 271 271 271 271 271 270 270 270 269 268 266 264 262 261 260 260 260 260 260 261 261 262 262 262 261 261 260 260 260 260 260 260 259 259 258
259 260 259 258 257 257 257 257 257 258 259 258 258 257 257 258 258 259 259 259 259 258 258 259 259 259 258 258 258 258 258 259 259 260 260 260 261 261 262 263 265 266 267 267 268 269 270 270 271 272 272 272 272 272 272 272 272 271 270 269 267 265 263 263 262 262 262 261 260 259 259 259 259 260 260 260 259 259 259 259 259 260 260 260 260
258 258 257 257 256 255 255 255 256 256 255 255 256 257 257 256 256 257 257 257 257 256 256 257 257 256 256 256 256 256 257 258 258 259 259 260 261 262 263 264 265 266 267 268 269 270 272 273 273 273 274 274 273 272 271 270 269 268 268 268 269 269 268 267 265 263 261 259 258 258 258 258 258 259 259 259 259 259 259 259 259 260 260 261 261
256 255 254 254 254 254 254 254 254 253 253 254 255 255 255 254 254 255 255 255 255 254 254 253 254 254 254 254 254 254 256 257 258 259 259 260 262 263 265 266 267 268 268 269 270 271 272 273 274 275 275 274 272 270 267 265 265 266 268 269 271 271 271 270 268 266 263 262 260 260 259 259 259 259 259 260 260 260 261 261 262 262 262 263 264
254 254 254 254 253 254 254 254 253 253 254 253 252 252 252 252 252 253 254 255 255 254 252 252 252 252 252 253 253 254 256 257 258 259 261 262 264 265 266 267 268 269 269 270 271 273 274 275 277 277 276 274 270 267 265 265 266 268 270 270 270 270 271 271 270 269 267 266 264 262 261 261 260 260 260 260 260 261 261 262 263 264 264 264 265
252 252 253 253 253 253 252 252 252 252 252 251 250 250 251 251 251 252 253 253 253 252 251 251 250 250 251 252 254 255 256 257 259 261 262 264 265 266 267 268 269 270 271 272 274 276 278 279 280 279 277 273 269 267 267 268 269 269 268 268 268 269 269 269 269 269 268 267 266 265 264 262 261 261 260 260 260 261 261 262 262 263 263 263 264
250 250 250 251 252 252 253 253 252 251 250 249 249 250 250 250 250 250 249 250 250 250 250 250 250 251 252 252 253 255 256 258 259 261 263 264 265 266 267 268 270 272 274 275 277 279 280 281 281 279 275 272 270 270 269 268 266 265 264 265 265 266 266 266 266 266 266 266 266 265 264 263 262 261 261 261 261 261 261 262 262 262 262 263 263
250 249 249 250 250 251 252 252 252 251 250 250 250 250 249 248 248 248 248 249 250 250 251 251 251 252 253 253 254 255 257 258 259 260 261 262 264 266 268 270 272 273 275 277 279 281 282 282 280 277 274 272 271 269 266 263 262 261 261 261 261 261 262 262 263 263 264 265 265 265 264 264 263 263 262 262 263 262 262 262 262 262 263 263 263
248 247 247 247 248 248 249 250 250 251 252 252 251 250 248 247 247 248 248 248 249 249 250 251 252 253 254 255 256 256 257 257 258 259 260 262 265 267 269 270 272 273 275 278 281 283 282 280 277 275 273 272 269 266 263 261 260 259 258 258 258 259 260 261 262 263 264 265 265 265 265 264 264 264 264 264 263 263 263 263 263 263 263 263 263
245 245 245 245 245 245 246 248 249 250 250 250 249 249 248 248 247 247 247 247 248 248 249 250 251 253 254 255 255 255 256 257 258 260 262 263 265 267 268 270 271 274 277 279 281 281 280 277 274 273 271 269 265 262 260 260 259 258 258 258 259 260 262 263 264 265 265 265 265 266 266 266 265 265 265 265 264 264 263 263 263 263 263 263 263
243 243 243 243 243 244 245 246 247 247 247 247 247 247 247 247 246 246 246 246 247 247 248 249 250 251 252 252 253 254 256 257 259 261 262 263 264 266 267 269 271 274 276 278 279 278 276 273 271 269 266 263 261 260 259 258 258 259 259 260 261 262 264 265 266 266 266 267 267 268 268 268 268 268 268 268 268 267 267 267 267 267 267 266 266
242 241 241 242 243 244 244 245 246 246 247 247 247 246 245 245 245 245 245 246 246 247 247 248 248 249 250 251 252 254 255 256 257 258 259 261 263 264 266 268 271 273 276 277 276 273 270 268 266 264 262 261 260 260 259 258 257 257 258 259 260 261 262 263 264 264 265 266 267 267 268 268 268 269 269 269 270 270 270 269 268 267 266 264 263
240 240 240 241 242 243 244 245 246 247 247 246 246 245 245 245 245 245 245 246 246 247 247 247 247 248 249 250 251 252 252 253 254 256 257 259 260 262 264 268 271 273 275 274 270 267 264 263 263 262 261 260 259 258 256 255 253 253 254 256 257 257 258 259 260 260 261 262 263 264 265 265 266 266 267 267 267 267 265 264 262 260 259 258 257
239 239 239 239 240 242 243 244 245 245 245 246 246 246 246 246 246 246 246 246 245 245 244 244 245 246 246 247 247 247 248 249 251 252 254 256 258 261 265 269 272 274 274 269 264 262 262 262 261 259 257 256 254 253 251 250 249 249 250 251 252 252 254 255 256 258 259 261 262 262 263 264 265 265 265 265 264 263 261 259 258 257 256 255 255
236 237 237 238 239 240 241 242 243 244 245 246 246 246 246 246 246 245 244 243 242 241 241 241 241 241 241 241 241 242 243 245 246 248 251 255 259 264 268 271 273 273 270 264 261 261 261 260 257 254 250 248 247 247 246 246 245 246 247 248 249 251 253 255 257 258 260 262 263 264 265 266 266 265 264 262 261 260 260 259 259 258 258 257 256
235 235 236 236 237 237 238 239 240 241 241 242 243 243 243 243 243 241 240 238 237 237 236 235 235 234 234 235 236 237 238 241 244 247 252 257 262 266 269 270 271 270 267 263 262 261 258 255 251 246 242 240 240 241 242 243 243 245 248 250 252 255 257 259 260 261 263 264 265 265 266 266 265 263 262 260 259 259 259 259 259 259 259 259 259
234 234 234 234 234 235 236 237 237 238 238 238 238 238 237 236 234 233 232 232 231 231 230 229 229 229 229 230 231 233 235 239 244 249 254 259 264 267 267 268 268 268 267 265 261 257 253 249 245 240 235 234 235 237 240 242 243 246 251 255 257 259 261 262 263 265 265 265 264 264 264 263 261 260 259 258 257 256 256 257 258 259 259 259 258
231 231 231 231 231 232 232 233 233 234 234 233 231 230 228 227 226 225 225 226 225 225 225 224 224 224 225 226 229 231 235 240 245 251 256 261 264 265 265 266 267 268 267 263 257 251 246 243 240 235 231 229 231 235 240 242 244 247 252 255 257 259 261 262 264 265 264 263 262 261 259 257 256 255 255 254 254 254 255 256 258 259 259 258 256
226 227 227 227 227 227 227 227 227 227 226 225 224 223 222 221 221 221 221 220 220 221 221 221 221 222 224 226 229 232 237 242 247 252 257 260 262 264 265 266 267 266 264 259 252 245 241 239 237 233 228 225 227 233 238 242 244 247 251 254 256 257 258 259 261 261 261 260 258 255 252 250 249 250 250 250 250 251 253 255 257 258 257 255 254
222 222 222 222 222 223 223 222 221 221 220 218 218 218 218 219 218 218 218 218 218 218 219 220 222 223 225 228 231 235 239 244 248 252 256 259 262 264 265 265 265 264 260 254 246 240 236 235 233 230 226 225 227 232 237 241 244 246 249 252 254 254 254 255 255 255 255 253 251 248 246 244 242 243 246 247 247 249 251 254 255 255 254 252 250
219 219 219 220 221 221 220 219 218 218 218 217 216 216 216 216 217 217 217 217 218 218 219 222 224 226 228 231 234 237 241 244 248 252 256 260 262 264 264 263 262 261 257 250 242 236 233 231 230 229 227 226 228 233 236 239 242 246 248 250 252 253 253 251 250 249 249 247 244 241 240 239 236 235 240 247 249 250 251 252 252 252 251 250 250
217 216 216 217 219 219 219 218 217 216 215 214 214 214 213 214 215 216 217 218 218 219 221 223 226 228 231 233 236 239 242 245 249 253 256 259 261 262 262 261 259 257 253 247 240 234 231 229 228 229 229 228 230 234 236 237 240 244 247 249 251 252 251 247 245 245 246 246 241 235 234 236 233 229 232 244 253 255 254 253 251 250 250 250 250
Height
10520 10521 10523 10525 10525 10525 10525 10526 10528 10527 10527 10529 10530 10530 10531 10532 10533 10534 10535 10537 10538 10539 10540 10541 10543 10544 10545 10546 10547 10548 10549 10551 10553 10554 10556 10558 10559 10561 10563 10564 10564 10565 10566 10567 10569 10570 10571 10572 10573 10575 10576 10578 10580 10582 10584 10586 10588 10590 10593 10595 10596 10598 10600 10602 10605 10606 10607 10609 10611 10613 10615 10615 10617 10618 10619 10621 10622 10624 10626 10628 10631 10632 10633 10634 10635
10508 10510 10514 10517 10518 10517 10517 10518 10519 10519 10519 10521 10523 10523 10524 10526 10527 10527 10528 10530 10531 10533 10534 10534 10535 10536 10537 10538 10539 10540 10542 10543 10546 10548 10549 10551 10552 10554 10556 10557 10558 10559 10560 10561 10562 10563 10565 10566 10567 10569 10570 10571 10573 10575 10577 10579 10581 10582 10584 10587 10589 10590 10592 10594 10596 10599 10600 10602 10604 10606 10608 10610 10611 10612 10613 10613 10614 10616 10617 10619 10622 10623 10625 10626 10628
10498 10500 10504 10507 10508 10508 10509 10510 10510 10511 10512 10514 10515 10516 10517 10519 10520 10520 10520 10523 10526 10527 10527 10527 10528 10527 10528 10529 10531 10533 10534 10536 10538 10540 10541 10543 10545 10546 10548 10550 10551 10552 10553 10555 10556 10557 10558 10559 10560 10562 10563 10565 10566 10568 10570 10572 10574 10575 10577 10579 10580 10582 10584 10586 10588 10590 10592 10594 10596 10598 10600 10602 10604 10605 10607 10607 10608 10609 10610 10612 10613 10615 10616 10618 10619
10490 10491 10494 10496 10499 10500 10501 10502 10501 10502 10504 10507 10507 10508 10509 10511 10513 10513 10514 10517 10519 10518 10518 10519 10519 10518 10518 10520 10522 10524 10526 10528 10529 10531 10533 10535 10537 10539 10540 10542 10544 10545 10546 10548 10549 10550 10552 10553 10554 10555 10557 10558 10560 10561 10563 10564 10566 10568 10569 10571 10573 10574 10575 10577 10580 10582 10583 10585 10587 10589 10591 10593 10595 10597 10599 10600 10601 10602 10604 10605 10607 10608 10609 10610 10611
10483 10484 10484 10486 10489 10491 10492 10493 10493 10494 10496 10498 10499 10499 10499 10502 10504 10505 10507 10508 10508 10508 10507 10508 10509 10510 10510 10511 10513 10514 10517 10520 10522 10523 10525 10528 10530 10531 10532 10534 10536 10537 10538 10540 10541 10542 10544 10545 10547 10548 10549 10551 10553 10554 10556 10557 10559 10560 10561 10563 10564 10565 10566 10568 10570 10573 10575 10576 10578 10580 10582 10584 10586 10588 10590 10592 10594 10595 10596 10598 10599 10601 10602 10603 10604
10477 10478 10477 10478 10480 10482 10482 10483 10484 10486 10487 10489 10491 10490 10490 10492 10495 10496 10498 10498 10498 10498 10497 10498 10500 10501 10500 10502 10504 10506 10509 10512 10514 10515 10517 10520 10522 10523 10524 10526 10527 10528 10530 10532 10533 10534 10536 10537 10539 10540 10542 10543 10545 10547 10548 10549 10551 10552 10553 10554 10555 10557 10558 10559 10561 10563 10565 10567 10569 10571 10574 10575 10577 10578 10580 10583 10585 10586 10588 10590 10591 10592 10594 10595 10596
10470 10471 10472 10472 10473 10474 10474 10475 10477 10478 10478 10480 10482 10482 10482 10484 10486 10487 10488 10488 10488 10489 10490 10491 10493 10492 10491 10492 10494 10497 10500 10503 10505 10507 10508 10510 10512 10514 10516 10518 10519 10521 10522 10524 10525 10526 10527 10529 10530 10531 10533 10535 10537 10538 10540 10541 10542 10543 10544 10545 10546 10548 10549 10550 10552 10554 10555 10557 10559 10561 10564 10567 10568 10569 10571 10574 10576 10577 10579 10581 10582 10583 10585 10587 10587
10462 10463 10465 10465 10466 10467 10467 10468 10469 10470 10472 10473 10474 10475 10476 10477 10478 10479 10480 10480 10480 10481 10483 10483 10484 10484 10484 10483 10484 10487 10491 10494 10496 10497 10498 10500 10503 10505 10508 10510 10512 10513 10514 10515 10516 10517 10518 10519 10520 10521 10522 10525 10527 10529 10531 10532 10533 10534 10535 10536 10538 10539 10540 10542 10543 10545 10547 10548 10549 10550 10553 10555 10558 10560 10563 10566 10567 10568 10570 10572 10573 10573 10576 10578 10578
10453 10455 10456 10457 10458 10458 10460 10461 10462 10463 10465 10467 10468 10468 10469 10470 10471 10472 10473 10473 10473 10475 10476 10475 10475 10476 10476 10476 10476 10479 10481 10484 10486 10487 10487 10490 10493 10495 10498 10502 10504 10504 10504 10505 10507 10508 10508 10509 10510 10511 10512 10514 10517 10519 10520 10522 10523 10524 10525 10527 10528 10530 10532 10533 10534 10536 10538 10539 10539 10541 10542 10544 10545 10548 10553 10556 10558 10560 10561 10563 10564 10563 10565 10568 10568
10446 10447 10448 10448 10449 10450 10452 10453 10454 10455 10458 10460 10461 10461 10461 10463 10465 10465 10465 10465 10466 10467 10469 10468 10467 10467 10467 10467 10469 10472 10474 10475 10476 10476 10476 10478 10482 10486 10489 10491 10493 10494 10495 10495 10496 10498 10498 10500 10501 10501 10502 10504 10506 10508 10510 10511 10513 10514 10515 10517 10518 10520 10522 10524 10525 10527 10529 10530 10530 10531 10532 10533 10534 10537 10541 10544 10547 10549 10550 10553 10554 10553 10555 10558 10559
10439 10439 10439 10439 10440 10442 10444 10444 10443 10446 10450 10451 10452 10453 10453 10455 10456 10457 10457 10458 10458 10459 10460 10460 10459 10459 10459 10459 10461 10464 10467 10467 10466 10466 10466 10468 10472 10477 10480 10481 10482 10484 10485 10485 10486 10488 10489 10490 10492 10492 10492 10493 10496 10498 10500 10501 10502 10504 10505 10506 10508 10510 10512 10514 10515 10516 10518 10520 10520 10521 10523 10524 10524 10527 10530 10532 10534 10536 10538 10539 10542 10543 10545 10548 10548
10430 10431 10432 10431 10432 10433 10435 10434 10434 10437 10440 10441 10442 10443 10444 10445 10446 10448 10449 10449 10448 10449 10449 10450 10450 10451 10451 10452 10454 10456 10459 10459 10456 10455 10457 10459 10463 10466 10468 10470 10472 10473 10475 10475 10476 10477 10478 10479 10480 10481 10482 10483 10485 10488 10490 10491 10492 10494 10495 10496 10498 10500 10502 10504 10505 10506 10507 10509 10510 10511 10513 10514 10515 10516 10518 10520 10523 10525 10525 10526 10529 10532 10534 10536 10537
10419 10421 10423 10424 10424 10424 10424 10425 10426 10429 10430 10430 10432 10432 10433 10434 10436 10437 10438 10439 10438 10438 10439 10440 10440 10442 10443 10446 10449 10451 10451 10449 10447 10446 10446 10448 10453 10456 10457 10458 10461 10463 10464 10464 10464 10465 10466 10468 10469 10470 10472 10473 10474 10477 10480 10481 10481 10483 10485 10486 10487 10489 10491 10493 10494 10494 10496 10497 10499 10500 10501 10504 10505 10505 10505 10509 10512 10513 10514 10515 10517 10521 10523 10524 10526
10408 10409 10411 10413 10415 10415 10415 10416 10418 10419 10419 10420 10421 10422 10423 10424 10424 10425 10427 10428 10428 10429 10430 10430 10430 10432 10434 10439 10445 10445 10442 10439 10437 10436 10436 10438 10443 10447 10446 10446 10449 10452 10452 10451 10452 10453 10455 10456 10457 10458 10460 10462 10463 10465 10468 10469 10469 10471 10473 10475 10476 10477 10479 10481 10482 10483 10484 10485 10488 10489 10490 10492 10494 10494 10493 10496 10500 10502 10503 10505 10507 10510 10512 10513 10514
10396 10397 10398 10400 10401 10403 10406 10407 10407 10408 10409 10409 10410 10411 10413 10414 10415 10415 10416 10417 10418 10419 10420 10420 10420 10421 10424 10431 10438 10437 10432 10428 10427 10428 10430 10432 10434 10435 10434 10434 10438 10440 10440 10439 10441 10443 10443 10443 10444 10445 10446 10451 10454 10454 10455 10456 10456 10459 10462 10465 10466 10466 10468 10468 10469 10470 10471 10473 10475 10477 10477 10479 10481 10482 10482 10483 10486 10489 10492 10494 10497 10498 10499 10501 10503
10384 10385 10386 10386 10387 10390 10394 10394 10395 10396 10397 10398 10399 10400 10402 10403 10404 10404 10405 10406 10407 10408 10410 10412 10412 10411 10414 10421 10426 10424 10419 10418 10419 10420 10423 10425 10425 10423 10422 10424 10426 10427 10428 10429 10430 10431 10430 10430 10431 10432 10434 10439 10442 10443 10443 10443 10444 10447 10451 10453 10454 10455 10456 10456 10457 10458 10459 10460 10461 10463 10465 10466 10467 10469 10470 10470 10472 10475 10479 10483 10485 10485 10487 10490 10492
10372 10375 10375 10373 10374 10377 10380 10381 10382 10384 10384 10385 10387 10388 10389 10390 10391 10392 10394 10395 10396 10397 10400 10402 10403 10405 10406 10409 10410 10409 10408 10409 10411 10412 10414 10414 10413 10411 10411 10413 10414 10416 10418 10419 10419 10419 10417 10417 10419 10421 10423 10427 10430 10430 10430 10431 10432 10435 10439 10440 10441 10442 10443 10443 10445 10446 10447 10447 10448 10449 10451 10453 10454 10455 10457 10458 10460 10461 10465 10470 10471 10471 10475 10479 10481
10361 10363 10363 10362 10362 10364 10367 10368 10369 10370 10371 10372 10374 10375 10376 10377 10377 10379 10381 10383 10384 10386 10389 10392 10396 10399 10398 10396 10395 10396 10397 10399 10401 10402 10403 10402 10400 10398 10399 10403 10404 10405 10406 10407 10407 10407 10405 10405 10408 10411 10413 10415 10416 10416 10416 10418 10420 10422 10424 10426 10427 10428 10429 10429 10431 10432 10433 10434 10435 10436 10437 10439 10440 10442 10443 10445 10447 10448 10451 10455 10456 10458 10462 10466 10468
10351 10351 10352 10351 10351 10353 10355 10357 10357 10358 10359 10360 10361 10362 10363 10363 10364 10365 10367 10370 10372 10374 10378 10382 10388 10389 10387 10384 10384 10385 10386 10387 10388 10388 10389 10389 10388 10387 10389 10392 10392 10392 10394 10394 10394 10394 10394 10395 10398 10401 10402 10402 10402 10402 10403 10405 10407 10408 10409 10411 10413 10414 10415 10415 10417 10419 10420 10421 10422 10422 10424 10425 10427 10429 10430 10431 10433 10434 10437 10440 10442 10444 10448 10452 10455
10341 10340 10340 10340 10340 10341 10343 10345 10346 10347 10348 10348 10349 10349 10349 10349 10350 10351 10353 10356 10358 10361 10367 10373 10376 10376 10373 10372 10373 10374 10374 10374 10374 10375 10377 10378 10377 10376 10377 10379 10379 10380 10381 10381 10381 10381 10383 10386 10387 10388 10388 10389 10388 10389 10391 10393 10394 10395 10395 10397 10398 10399 10400 10401 10403 10404 10406 10407 10407 10408 10410 10412 10413 10415 10417 10417 10419 10420 10422 10425 10428 10430 10434 10437 10440
10329 10329 10329 10329 10329 10330 10331 10333 10335 10337 10337 10337 10337 10337 10337 10337 10338 10339 10340 10342 10345 10350 10356 10360 10362 10362 10360 10360 10362 10362 10361 10361 10362 10364 10365 10366 10365 10365 10365 10366 10366 10367 10367 10368 10368 10368 10369 10373 10376 10375 10375 10375 10376 10377 10379 10380 10381 10382 10382 10382 10383 10385 10386 10388 10388 10389 10391 10392 10393 10394 10396 10397 10399 10401 10403 10404 10405 10406 10407 10409 10412 10415 10419 10423 10425
10318 10318 10318 10318 10318 10319 10320 10321 10323 10325 10325 10325 10326 10326 10325 10325 10326 10327 10329 10330 10333 10340 10344 10345 10347 10349 10349 10349 10349 10349 10348 10349 10351 10352 10353 10353 10353 10354 10354 10354 10353 10353 10354 10355 10356 10356 10356 10359 10364 10365 10363 10364 10365 10366 10366 10367 10368 10368 10368 10368 10369 10371 10372 10374 10374 10375 10376 10378 10380 10381 10382 10383 10385 10386 10389 10391 10392 10393 10394 10395 10397 10399 10404 10408 10411
10308 10308 10308 10308 10308 10308 10308 10309 10311 10313 10313 10312 10313 10315 10314 10313 10314 10316 10318 10319 10323 10329 10331 10331 10333 10336 10337 10337 10337 10336 10336 10337 10339 10340 10341 10341 10341 10342 10343 10342 10341 10341 10342 10342 10343 10344 10345 10347 10351 10353 10353 10354 10355 10355 10355 10355 10355 10355 10355 10355 10356 10357 10358 10359 10360 10361 10363 10364 10366 10367 10369 10369 10370 10372 10374 10376 10377 10379 10381 10382 10383 10384 10388 10392 10395
10298 10298 10297 10297 10297 10297 10297 10298 10301 10302 10301 10300 10301 10303 10303 10302 10303 10306 10307 10309 10313 10316 10318 10319 10321 10323 10324 10325 10325 10325 10325 10325 10327 10328 10329 10329 10329 10330 10331 10331 10331 10331 10331 10331 10332 10333 10334 10336 10339 10341 10342 10343 10344 10343 10342 10342 10342 10342 10342 10343 10343 10343 10344 10345 10346 10347 10348 10350 10351 10353 10354 10355 10356 10358 10360 10361 10363 10365 10366 10368 10370 10371 10373 10376 10380
10287 10288 10288 10287 10286 10287 10287 10288 10290 10290 10290 10289 10289 10292 10293 10293 10295 10298 10298 10300 10302 10303 10306 10308 10309 10310 10313 10314 10313 10313 10314 10315 10316 10317 10317 10317 10318 10318 10319 10320 10321 10321 10322 10322 10321 10322 10324 10325 10327 10328 10329 10330 10331 10330 10330 10330 10330 10331 10330 10330 10330 10330 10330 10331 10332 10333 10334 10335 10336 10338 10340 10341 10342 10344 10346 10348 10349 10350 10351 10353 10356 10358 10359 10362 10366
10277 10278 10278 10277 10276 10276 10276 10277 10279 10280 10280 10279 10279 10283 10286 10285 10286 10288 10289 10289 10290 10292 10294 10297 10298 10300 10302 10302 10302 10302 10303 10305 10306 10306 10306 10307 10307 10308 10309 10309 10310 10311 10312 10313 10313 10313 10313 10314 10315 10316 10317 10318 10318 10318 10318 10318 10319 10319 10318 10318 10318 10318 10318 10318 10318 10319 10321 10322 10323 10324 10326 10327 10328 10330 10332 10334 10335 10336 10336 10338 10342 10344 10346 10348 10352
10267 10268 10268 10266 10265 10265 10266 10267 10269 10269 10269 10270 10272 10276 10278 10277 10275 10277 10279 10279 10280 10282 10284 10286 10288 10290 10292 10292 10292 10292 10294 10295 10295 10296 10297 10298 10299 10299 10299 10300 10300 10302 10302 10303 10304 10304 10304 10304 10304 10305 10306 10306 10307 10307 10307 10307 10307 10307 10306 10306 10306 10306 10307 10307 10307 10308 10308 10309 10310 10311 10312 10312 10313 10315 10317 10320 10322 10322 10322 10324 10328 10331 10333 10335 10339
10257 10258 10257 10256 10256 10257 10257 10259 10261 10260 10259 10262 10266 10268 10268 10266 10265 10268 10270 10271 10272 10272 10273 10276 10280 10281 10282 10282 10282 10283 10284 10285 10287 10288 10290 10290 10290 10290 10290 10291 10292 10292 10293 10294 10294 10294 10294 10294 10295 10295 10296 10296 10296 10296 10297 10297 10296 10296 10296 10296 10296 10296 10296 10296 10296 10296 10296 10296 10297 10298 10298 10299 10300 10301 10303 10306 10309 10310 10310 10311 10314 10318 10321 10323 10326
10248 10249 10249 10249 10250 10249 10249 10251 10252 10250 10251 10256 10259 10259 10258 10257 10258 10260 10261 10261 10264 10265 10265 10267 10271 10272 10272 10273 10274 10274 10275 10276 10278 10280 10281 10281 10281 10281 10282 10283 10283 10284 10284 10285 10285 10286 10285 10285 10285 10286 10287 10287 10287 10287 10287 10287 10287 10286 10286 10286 10285 10285 10284 10284 10284 10283 10284 10284 10285 10286 10287 10288 10289 10290 10292 10294 10296 10298 10299 10300 10303 10306 10309 10311 10313
10238 10240 10242 10242 10242 10240 10240 10242 10242 10242 10246 10249 10249 10248 10249 10250 10250 10253 10253 10253 10256 10258 10258 10259 10262 10263 10264 10265 10266 10266 10267 10268 10269 10271 10272 10273 10273 10274 10274 10275 10275 10276 10277 10277 10277 10277 10277 10277 10277 10278 10278 10279 10279 10279 10278 10278 10277 10277 10276 10275 10274 10273 10273 10273 10273 10274 10275 10276 10277 10277 10278 10279 10279 10280 10282 10284 10285 10287 10288 10290 10292 10294 10296 10299 10301
10230 10232 10232 10232 10232 10231 10232 10232 10234 10237 10240 10240 10238 10240 10243 10243 10243 10245 10246 10246 10248 10250 10251 10251 10254 10256 10257 10257 10258 10258 10259 10260 10261 10263 10264 10264 10265 10266 10267 10267 10268 10268 10269 10269 10268 10268 10268 10269 10270 10270 10271 10271 10271 10271 10270 10269 10268 10267 10265 10264 10263 10263 10264 10265 10266 10267 10268 10268 10268 10268 10268 10268 10269 10270 10271 10273 10275 10276 10278 10280 10282 10284 10286 10288 10291
10222 10222 10222 10222 10221 10222 10223 10224 10227 10230 10231 10230 10231 10234 10236 10236 10236 10238 10238 10238 10240 10243 10244 10245 10246 10248 10249 10250 10251 10251 10251 10252 10254 10255 10256 10256 10257 10258 10259 10260 10261 10261 10261 10261 10261 10261 10261 10262 10262 10263 10263 10264 10263 10262 10261 10260 10258 10257 10256 10255 10255 10256 10256 10257 10258 10258 10258 10258 10258 10258 10259 10259 10260 10262 10263 10265 10266 10268 10269 10271 10273 10276 10277 10279 10280
10211 10212 10212 10212 10212 10213 10215 10218 10220 10222 10223 10224 10226 10227 10227 10227 10229 10230 10230 10231 10233 10236 10238 10239 10239 10241 10242 10243 10243 10244 10245 10246 10247 10248 10248 10249 10250 10251 10252 10253 10253 10254 10253 10253 10254 10254 10255 10255 10256 10257 10256 10256 10255 10254 10252 10250 10249 10249 10249 10249 10249 10249 10248 10248 10249 10249 10249 10250 10250 10251 10251 10253 10254 10255 10256 10257 10259 10260 10261 10263 10265 10267 10269 10270 10271
10202 10202 10203 10203 10205 10207 10208 10210 10212 10214 10216 10218 10219 10218 10218 10220 10222 10223 10224 10226 10228 10230 10231 10232 10233 10234 10235 10235 10236 10238 10239 10240 10240 10241 10242 10243 10244 10245 10246 10246 10246 10246 10246 10247 10247 10248 10249 10249 10250 10250 10249 10248 10246 10245 10243 10242 10242 10243 10243 10243 10242 10242 10241 10241 10242 10242 10242 10243 10243 10244 10245 10246 10247 10249 10249 10250 10252 10253 10254 10256 10258 10260 10261 10262 10263
10192 10194 10194 10194 10197 10199 10200 10201 10205 10207 10208 10208 10210 10210 10212 10214 10216 10217 10218 10219 10220 10221 10223 10225 10226 10226 10227 10228 10230 10231 10232 10233 10234 10235 10236 10237 10238 10239 10239 10239 10239 10239 10240 10241 10241 10242 10243 10243 10243 10242 10241 10239 10238 10237 10237 10237 10237 10237 10236 10236 10235 10236 10236 10236 10236 10236 10236 10237 10237 10238 10239 10240 10241 10242 10242 10243 10245 10246 10247 10249 10251 10252 10253 10254 10255
10184 10185 10186 10187 10189 10191 10192 10195 10197 10198 10197 10199 10202 10204 10206 10208 10210 10210 10210 10211 10212 10214 10215 10217 10218 10219 10220 10222 10223 10225 10226 10228 10229 10230 10231 10231 10232 10232 10232 10232 10233 10233 10234 10235 10236 10237 10237 10237 10236 10235 10233 10232 10232 10232 10232 10232 10231 10231 10230 10230 10231 10231 10231 10231 10231 10231 10231 10232 10232 10233 10233 10234 10235 10236 10236 10237 10239 10240 10241 10242 10244 10245 10246 10247 10248
10177 10178 10179 10180 10182 10184 10186 10187 10187 10188 10190 10193 10196 10197 10199 10201 10202 10202 10203 10204 10206 10207 10208 10210 10211 10212 10213 10215 10218 10220 10221 10222 10223 10224 10225 10225 10226 10226 10227 10227 10228 10228 10229 10230 10230 10231 10231 10230 10229 10227 10226 10226 10227 10227 10226 10226 10225 10226 10226 10226 10226 10226 10226 10226 10227 10227 10227 10228 10228 10228 10229 10229 10230 10231 10231 10232 10233 10235 10235 10236 10237 10238 10240 10241 10242
10170 10171 10172 10174 10176 10177 10178 10178 10179 10182 10185 10187 10188 10189 10191 10193 10194 10195 10196 10197 10199 10200 10201 10203 10204 10206 10208 10210 10212 10214 10215 10216 10217 10218 10219 10220 10220 10221 10222 10222 10222 10223 10224 10225 10225 10225 10225 10223 10222 10221 10221 10221 10222 10221 10220 10221 10221 10221 10221 10222 10222 10222 10223 10223 10223 10224 10224 10224 10224 10224 10225 10225 10226 10226 10227 10227 10228 10229 10230 10231 10232 10233 10234 10235 10236
10163 10164 10166 10167 10169 10170 10171 10172 10174 10177 10179 10179 10180 10183 10185 10187 10188 10189 10189 10190 10192 10193 10195 10197 10199 10201 10203 10205 10207 10208 10209 10210 10212 10213 10214 10215 10216 10216 10216 10217 10217 10218 10219 10220 10220 10220 10219 10218 10217 10217 10217 10217 10216 10216 10216 10216 10217 10217 10217 10218 10218 10219 10219 10219 10220 10220 10221 10221 10221 10221 10221 10222 10222 10222 10223 10223 10224 10225 10225 10226 10227 10228 10229 10230 10231
10156 10158 10159 10161 10162 10163 10165 10167 10169 10171 10172 10173 10175 10177 10178 10180 10181 10182 10183 10184 10186 10188 10190 10193 10195 10196 10198 10199 10201 10202 10204 10206 10207 10208 10209 10210 10210 10211 10211 10212 10212 10214 10215 10216 10216 10215 10213 10213 10213 10213 10213 10213 10212 10212 10212 10213 10213 10214 10214 10215 10215 10216 10216 10217 10217 10217 10217 10218 10218 10218 10218 10218 10219 10219 10219 10219 10220 10221 10221 10222 10223 10224 10225 10226 10227
10150 10152 10153 10155 10156 10157 10159 10161 10162 10164 10166 10168 10170 10171 10172 10173 10175 10176 10178 10180 10182 10184 10186 10188 10190 10191 10193 10194 10196 10198 10200 10201 10202 10203 10204 10205 10205 10206 10206 10207 10208 10210 10211 10211 10211 10210 10209 10209 10209 10209 10209 10209 10208 10209 10209 10209 10210 10211 10211 10212 10213 10213 10214 10214 10215 10215 10215 10215 10215 10215 10215 10215 10216 10216 10216 10216 10217 10217 10218 10219 10219 10220 10221 10221 10222
10145 10147 10148 10149 10151 10152 10154 10155 10157 10159 10160 10162 10163 10165 10166 10168 10170 10172 10174 10176 10178 10180 10182 10183 10185 10186 10188 10190 10192 10194 10196 10196 10197 10199 10199 10200 10201 10201 10202 10204 10205 10206 10206 10207 10206 10206 10205 10205 10205 10205 10205 10205 10205 10206 10206 10207 10208 10208 10209 10210 10210 10211 10212 10212 10213 10213 10212 10212 10213 10213 10212 10213 10213 10213 10213 10214 10214 10214 10215 10215 10216 10216 10217 10218 10219
10141 10142 10144 10145 10146 10147 10149 10150 10152 10153 10155 10156 10158 10160 10162 10164 10166 10168 10170 10172 10174 10175 10177 10179 10181 10183 10185 10187 10188 10190 10191 10192 10193 10194 10195 10196 10196 10198 10199 10200 10201 10201 10202 10202 10202 10201 10201 10201 10202 10202 10202 10202 10203 10203 10204 10204 10205 10206 10207 10208 10208 10209 10210 10210 10210 10210 10210 10210 10210 10210 10210 10210 10210 10211 10211 10211 10211 10211 10211 10211 10212 10213 10214 10214 10215
10137 10138 10139 10141 10142 10143 10145 10146 10147 10149 10150 10152 10154 10156 10158 10160 10162 10164 10166 10167 10169 10171 10173 10175 10177 10179 10181 10182 10184 10185 10187 10188 10189 10190 10191 10191 10193 10194 10196 10196 10197 10197 10198 10198 10198 10198 10198 10198 10199 10199 10200 10200 10200 10201 10202 10203 10204 10204 10205 10205 10206 10207 10207 10207 10207 10207 10207 10207 10207 10207 10207 10207 10207 10207 10207 10207 10207 10207 10208 10208 10209 10210 10211 10211 10212
10133 10134 10136 10137 10138 10140 10141 10142 10143 10145 10147 10149 10150 10152 10154 10156 10158 10160 10162 10163 10165 10167 10169 10171 10173 10175 10176 10178 10180 10182 10183 10184 10185 10186 10187 10188 10190 10191 10192 10193 10193 10194 10194 10194 10195 10195 10195 10195 10196 10197 10197 10198 10198 10199 10200 10201 10201 10202 10202 10203 10204 10204 10205 10204 10204 10204 10204 10204 10204 10204 10204 10204 10204 10204 10204 10204 10204 10205 10205 10206 10207 10207 10208 10209 10209
10130 10131 10133 10134 10135 10136 10138 10139 10140 10142 10144 10146 10148 10149 10151 10153 10155 10156 10158 10160 10162 10164 10166 10167 10169 10171 10173 10175 10177 10178 10180 10181 10182 10183 10184 10185 10187 10188 10189 10189 10190 10190 10191 10191 10192 10192 10192 10193 10193 10194 10195 10195 10196 10197 10198 10199 10199 10199 10200 10200 10201 10202 10202 10202 10202 10202 10202 10202 10202 10202 10202 10202 10202 10202 10202 10202 10202 10203 10203 10204 10204 10205 10205 10206 10207
10128 10129 10130 10132 10133 10134 10135 10137 10138 10140 10142 10143 10145 10147 10148 10150 10152 10153 10155 10157 10159 10161 10163 10165 10167 10168 10170 10172 10173 10175 10176 10178 10179 10180 10181 10183 10184 10185 10185 10186 10186 10187 10188 10188 10189 10189 10190 10190 10190 10191 10192 10193 10194 10195 10195 10196 10197 10197 10198 10198 10199 10200 10200 10200 10200 10200 10200 10200 10200 10200 10200 10200 10200 10200 10200 10200 10200 10201 10201 10202 10202 10203 10203 10204 10204
10126 10127 10129 10130 10131 10132 10133 10135 10136 10138 10140 10141 10143 10144 10146 10147 10149 10151 10153 10155 10156 10158 10160 10162 10164 10166 10167 10169 10171 10172 10174 10175 10176 10178 10179 10180 10181 10181 10182 10183 10183 10184 10185 10185 10186 10187 10187 10187 10187 10188 10189 10190 10191 10192 10193 10194 10195 10195 10196 10196 10197 10198 10198 10198 10198 10198 10198 10198 10198 10198 10198 10198 10198 10198 10198 10199 10199 10199 10200 10200 10201 10201 10201 10202 10202
10124 10126 10127 10128 10129 10130 10132 10133 10135 10136 10138 10139 10141 10143 10144 10146 10147 10149 10151 10152 10154 10156 10158 10160 10162 10163 10165 10166 10168 10170 10171 10172 10174 10175 10176 10177 10178 10178 10179 10180 10180 10181 10182 10183 10183 10184 10184 10184 10185 10185 10186 10187 10188 10189 10190 10192 10193 10193 10194 10194 10195 10195 10196 10196 10196 10196 10196 10196 10196 10197 10197 10197 10197 10197 10197 10197 10198 10198 10198 10199 10199 10199 10200 10200 10200
10123 10124 10125 10127 10128 10129 10131 10132 10133 10135 10137 10138 10139 10141 10143 10144 10146 10147 10149 10151 10153 10155 10157 10158 10160 10161 10163 10164 10166 10167 10168 10170 10171 10172 10173 10174 10175 10175 10176 10177 10177 10178 10179 10179 10180 10181 10181 10181 10182 10182 10183 10184 10185 10187 10188 10190 10191 10191 10192 10192 10193 10193 10194 10194 10194 10194 10194 10194 10195 10195 10195 10195 10195 10196 10196 10196 10196 10197 10197 10197 10198 10198 10198 10199 10199
10121 10122 10124 10125 10127 10128 10129 10131 10132 10134 10135 10137 10138 10140 10141 10143 10145 10146 10148 10149 10151 10153 10155 10156 10157 10159 10160 10162 10163 10164 10166 10167 10168 10169 10170 10170 10171 10172 10173 10174 10174 10175 10176 10176 10177 10178 10178 10178 10179 10179 10180 10181 10182 10184 10185 10187 10188 10189 10190 10190 10190 10191 10191 10191 10192 10192 10192 10193 10193 10194 10194 10194 10195 10195 10195 10195 10195 10195 10196 10196 10196 10197 10197 10197 10198